Regional Weather Roundup
Issued by NWS Portland, ME

Home | Current Version | Previous Version | Text Only | Print | Product List | Glossary On
Versions: 1 2 3 4 5 6 7 8 9 10 11 12 13 14 15 16 17 18 19 20 21 22 23 24 25 26 27 28 29 30 31 32 33 34 35 36 37 38 39 40 41 42 43 44 45 46 47 48 49 50
000
ASUS41 KGYX 270310
RWRGYX
WEATHER ROUNDUP FOR MAINE AND NEW HAMPSHIRE
NATIONAL WEATHER SERVICE GRAY ME
1100 PM EDT THU MAY 26 2016

MEZ002-005-006-010-012-015-018-020-021-024-026-027-029-270400-
MAINE

CITY           SKY/WX    TMP DP  RH WIND       PRES   REMARKS
PORTLAND       PTCLDY    57  51  80 CALM      30.13S
SANFORD        MOCLDY    57  48  72 CALM      30.14S
BAR HARBOR     CLOUDY    56  52  86 E9        30.22R
WISCASSET      CLEAR     54  51  90 CALM      30.16R
ROCKLAND       PTCLDY    52  50  93 E5        30.18R
FRYEBURG       MOCLDY    60  56  86 CALM      30.13R
LEWISTONAUBURN PTCLDY    55  48  76 CALM      30.14S
AUGUSTA        CLEAR     59  51  75 SE6       30.15S
WATERVILLE     PTCLDY    59  52  77 CALM      30.13R
BANGOR         PTCLDY    63  51  65 SE9       30.18R
GREENVILLE       N/A     57  47  69 SE7G16    30.15R
MILLINOCKET    CLOUDY    57  49  74 CALM      30.20R
HOULTON        PTCLDY    53  49  86 SE6       30.18R
PRESQUE ISLE   CLOUDY    49  47  93 CALM      30.19R
FRENCHVILLE    PTCLDY    55  44  66 E5        30.17S
CARIBOU        CLOUDY    55  49  80 E5        30.17S
$$

NHZ002-005-008-009-011-012-014-270400-
NEW HAMPSHIRE

CITY           SKY/WX    TMP DP  RH WIND       PRES   REMARKS
PORTSMOUTH     MOCLDY    59  50  72 SE10      30.11R
ROCHESTER      MOCLDY    60  49  66 CALM      30.12S
NASHUA         PTCLDY    65  56  72 E6        30.10S
MANCHESTER     CLOUDY    63  52  67 E6        30.09S
CONCORD        MOCLDY    63  53  70 SE6       30.11R
LACONIA        PTCLDY    63  55  75 CALM      30.13R
PLYMOUTH       FAIR      66  54  65 CALM      30.11R
BERLIN         CLOUDY    60  51  72 CALM      30.11R
WHITEFIELD     CLOUDY    62  54  74 CALM      30.08R
JAFFREY        CLOUDY    66  57  72 CALM      30.11R
KEENE          CLOUDY    68  61  77 CALM      30.08R
LEBANON        CLOUDY    66  59  78 CALM      30.05R
MT WASHINGTON  MOCLDY    50  45  81 S12         N/A
$$

VTZ005-007-008-270400-
VERMONT

CITY           SKY/WX    TMP DP  RH WIND       PRES   REMARKS
ST JOHNSBURY     N/A     67  55  65 MISG      30.05R
MONTPELIER     MOCLDY    63  55  75 CALM      30.10S
BURLINGTON     MOCLDY    71  51  49 SW3       30.01F
$$

MAZ007-012-024-CTZ003-RIZ002-NYZ038-NYZ072-270400-
SOUTHERN NEW ENGLAND AND NY

CITY           SKY/WX    TMP DP  RH WIND       PRES   REMARKS
BOSTON         MOCLDY    60  55  83 CALM      30.09R
WORCESTER      PTCLDY    72  54  53 CALM      30.11R
NANTUCKET      CLEAR     56  53  90 SE7       30.13R
PROVIDENCE     MOCLDY    64  56  75 CALM      30.09R
HARTFORD       PTCLDY    73  55  53 S8        30.06R
ALBANY         MOCLDY    77  55  46 S8        30.02R
NEW YORK CITY  PTCLDY    73  62  68 S10       30.05S
$$

ANZ081-ANZ082-ANZ150-NHZ014-MEZ023>029-270400-
COASTAL MARINE OBSERVATIONS

STATION/POSITION TIME  TEMP    WIND        PRES    WAVE
                       AIR SEA DIR/SP/G            HT/PER
                 (UTC) (F)     (DEG/KT/KT) (MB)    (FT/S)
MOUNT DESERT ROC 0300   52      70/ 12/ 12 1022.8R
MATINICUS ROCK   0200   55     170/ 10/ 11 1020.8R
ISLE OF SHOALS   0200   57     140/ 12/ 13 1019.5R
JEFFREYS LEDGE   0208      53                N/A     3/ 7
CASHES LEDGE BUO 0250   55 52  130/ 10/ 10 1020.6R   2/ 8
GEORGES BANK BUO 0250   54 52              1021.4R   3/ 7
$$

.............KEY..............
   WCI - WIND CHILL
   TC  - TEMPERATURE IN CELSIUS
   VSB - VISIBILITY IN MILES
   HX  - HEAT INDEX
   FAIR- INDICATES FEW OR NO CLOUDS BELOW 12,000 FT, WITH NO
         SIGNIFICANT WEATHER AND/OR OBSTRUCTIONS TO VISIBILITY.






USA.gov is the U.S. government's official web portal to all federal, state and local government web resources and services.